Location: Flotzheim
(48.8375°N, 10.8136°E)
Time: 03:38:25
(UTC+00:00)

USA 281 - Pass Details

Date: 23 January 2021
Orbit: 1072 x 1086 km, 106.0° (Epoch: 22 February)

Event Time Altitude Azimuth Distance (km) Brightness Sun altitude
Exits shadow 18:58:01 32° 18° (NNE) 1,773 4.2 -29.0°
Drops below altitude 10° 19:02:13 10° 345° (NNW) 2,941 5.7 -29.7°
Sets 19:04:55 0° 338° (NNW) 3,899 6.5 -30.1°
